Tchien Airport

Jump to: basic info | weather | comments

Related pages: nearby airports | nearby navaids | notams | map

Basic information (top)

Codes: THC GLTN
Location: lon 6.045650, lat -8.138723, elev 790 ft / 241 m msl
Status: small_airport
Scheduled airline service: no
Links: Wikipedia Mobile

Weather (top)

Current conditions for Man Airport 81nm (149km) NNE (rec'd 2013/11/21 04:00Z):

DIMN 210400Z NOL

Airport forecast for Roberts International Airport 133nm (247km) W (rec'd 2014/10/20 18:54Z):

TAF TAF GLRB 201600Z 2018/2124 20010KT 9999 BKN018 FEW027CB FM 202000 24012KT 8000 TS/TSRA SCT004 BKN014 FEW024CB 
      BECMG 2102/2104 02004KT 6000 
      TEMPO 2105/2110 24010KT 9999 BKN015

Latest comments (top)

No comments yet for Tchien Airport

More... (top)

See also NOTAMs and nearby airports and navaids, or visit the Tchien Airport page at the main OurAirports website..